Hickory, NC

3:52 AM EDT on May 23, 2017 (GMT -0400)
Hickory Regional

Weather History for KHKY - July, 2013

Change the Weather History Date:

Tuesday, July 16, 2013

  Actual Average Record
Temperature  
Mean Temperature 79 °F -  
Max Temperature 91 °F 87 °F 101 °F (1980)
Min Temperature 68 °F 67 °F 33 °F (1996)
Cooling Degree Days 14    
Growing Degree Days 29 (Base 50)    
Moisture  
Dew Point 67 °F    
Average Humidity 70    
Maximum Humidity 93    
Minimum Humidity 39    
Precipitation  
Precipitation 0.00 in - - ()
Sea Level Pressure  
Sea Level Pressure 30.24 in    
Wind  
Wind Speed 2 mph (WNW)    
Max Wind Speed 6 mph    
Max Gust Speed -    
Visibility 10 miles    
Events      
Averages and records for this station are not official NWS values.
T = Trace of Precipitation, MM = Missing Value Source: NWS Daily Summary

Daily Weather History Graph

Daily Weather History Graph

Search for Another Location

Airport or City:

Trip Planner

Search our weather history database for the weather conditions in past years. The results will help you decide how hot, cold, wet, or windy it might be!

Date:

Astronomy

Jul. 16, 2013 Rise Set
Actual Time 6:21 AM EDT 8:41 PM EDT
Civil Twilight 5:52 AM EDT 9:10 PM EDT
Nautical Twilight 5:16 AM EDT 9:46 PM EDT
Astronomical Twilight 4:37 AM EDT 10:25 PM EDT
Moon 2:25 PM EDT (7/16) 12:44 AM EDT (7/16)
Length of Visible Light 15h 17m
Length of Day
14h 19m
First Quarter, 56% of the Moon is Illuminated
Jul 16
First Quarter
Jul 22
Full
Jul 29
Last Quarter
Aug 6
New
Aug 14
First Quarter

Hourly Weather History & Observations

Time (EDT) Temp. Heat Index Dew Point Humidity Pressure Visibility Wind Dir Wind Speed Gust Speed Precip Events Conditions
12:53 AM 71.1 °F - 68.0 °F 90% 30.27 in 10.0 mi Calm Calm - N/A   Clear
1:53 AM 70.0 °F - 68.0 °F 93% 30.27 in 10.0 mi WNW 3.5 mph - N/A   Clear
2:53 AM 70.0 °F - 66.9 °F 90% 30.27 in 10.0 mi WNW 3.5 mph - N/A   Clear
3:53 AM 70.0 °F - 66.9 °F 90% 30.26 in 10.0 mi Calm Calm - N/A   Clear
4:53 AM 69.1 °F - 66.0 °F 90% 30.25 in 10.0 mi Calm Calm - N/A   Clear
5:53 AM 69.1 °F - 66.0 °F 90% 30.26 in 10.0 mi WNW 4.6 mph - N/A   Clear
6:53 AM 68.0 °F - 66.0 °F 93% 30.27 in 10.0 mi NNW 3.5 mph - N/A   Clear
7:53 AM 71.1 °F - 66.9 °F 87% 30.27 in 10.0 mi West 3.5 mph - N/A   Clear
8:53 AM 75.0 °F - 69.1 °F 82% 30.29 in 10.0 mi Calm Calm - N/A   Clear
9:53 AM 78.1 °F - 70.0 °F 76% 30.28 in 10.0 mi NW 4.6 mph - N/A   Clear
10:53 AM 82.0 °F 85.9 °F 70.0 °F 67% 30.28 in 10.0 mi Variable 4.6 mph - N/A   Clear
11:53 AM 84.0 °F 87.0 °F 68.0 °F 58% 30.27 in 10.0 mi NW 4.6 mph - N/A   Clear
12:53 PM 87.1 °F 90.6 °F 68.0 °F 53% 30.26 in 10.0 mi North 4.6 mph - N/A   Clear
1:53 PM 89.1 °F 92.9 °F 68.0 °F 50% 30.24 in 10.0 mi North 5.8 mph - N/A   Clear
2:53 PM 90.0 °F 90.3 °F 62.1 °F 39% 30.22 in 10.0 mi Variable 3.5 mph - N/A   Clear
3:53 PM 89.1 °F 91.0 °F 64.9 °F 45% 30.21 in 10.0 mi South 3.5 mph - N/A   Clear
4:53 PM 90.0 °F 91.7 °F 64.9 °F 43% 30.20 in 10.0 mi Calm Calm - N/A   Clear
5:53 PM 89.1 °F 92.1 °F 66.9 °F 48% 30.19 in 10.0 mi Calm Calm - N/A   Clear
6:53 PM 86.0 °F 88.8 °F 66.9 °F 53% 30.19 in 10.0 mi SW 3.5 mph - N/A   Clear
7:53 PM 82.9 °F 85.8 °F 68.0 °F 60% 30.21 in 10.0 mi Calm Calm - N/A   Clear
8:53 PM 81.0 °F 83.3 °F 66.9 °F 62% 30.21 in 10.0 mi Calm Calm - N/A   Clear
9:53 PM 79.0 °F - 69.1 °F 72% 30.23 in 10.0 mi Calm Calm - N/A   Clear
10:53 PM 75.9 °F - 68.0 °F 76% 30.22 in 10.0 mi Calm Calm - N/A   Clear
11:53 PM 75.0 °F - 66.9 °F 76% 30.20 in 10.0 mi WNW 3.5 mph - N/A   Clear